Lakeland Region, FL

6:54 AM EDT on May 27, 2017 (GMT -0400)
Lakeland Linder Regional

Weather History for KLAL - October, 2012

Change the Weather History Date:

Thursday, October 25, 2012

  Actual Average Record
Temperature  
Mean Temperature 76 °F -  
Max Temperature 84 °F 80 °F 87 °F (1997)
Min Temperature 69 °F 63 °F 46 °F (2006)
Cooling Degree Days 12    
Growing Degree Days 26 (Base 50)    
Moisture  
Dew Point 67 °F    
Average Humidity 84    
Maximum Humidity 100    
Minimum Humidity 55    
Precipitation  
Precipitation 0.00 in - - ()
Sea Level Pressure  
Sea Level Pressure 29.88 in    
Wind  
Wind Speed 9 mph (NNE)    
Max Wind Speed 21 mph    
Max Gust Speed 26 mph    
Visibility 10 miles    
Events      
Averages and records for this station are not official NWS values.
T = Trace of Precipitation, MM = Missing Value Source: NWS Daily Summary

Daily Weather History Graph

Daily Weather History Graph

Search for Another Location

Airport or City:

Trip Planner

Search our weather history database for the weather conditions in past years. The results will help you decide how hot, cold, wet, or windy it might be!

Date:

Astronomy

Oct. 25, 2012 Rise Set
Actual Time 7:34 AM EDT 6:48 PM EDT
Civil Twilight 7:10 AM EDT 7:12 PM EDT
Nautical Twilight 6:43 AM EDT 7:40 PM EDT
Astronomical Twilight 6:16 AM EDT 8:07 PM EDT
Moon 4:18 PM EDT (10/25) 3:48 AM EDT (10/25)
Length of Visible Light 12h 01m
Length of Day
11h 14m
Waxing Gibbous, 84% of the Moon is Illuminated
Oct 25
Waxing Gibbous
Oct 29
Full
Nov 6
Last Quarter
Nov 13
New
Nov 20
First Quarter

Hourly Weather History & Observations

Time (EDT) Temp. Heat Index Dew Point Humidity Pressure Visibility Wind Dir Wind Speed Gust Speed Precip Events Conditions
12:15 AM 71.6 °F - 64.4 °F 78% 29.95 in 10.0 mi NNE 10.4 mph - N/A   Clear
12:35 AM 71.6 °F - 64.4 °F 78% 29.94 in 10.0 mi NNE 10.4 mph - N/A   Clear
12:55 AM 69.8 °F - 64.4 °F 83% 29.93 in 10.0 mi NNE 8.1 mph - N/A   Scattered Clouds
1:15 AM 69.8 °F - 66.2 °F 88% 29.93 in 10.0 mi NNE 6.9 mph - N/A   Scattered Clouds
1:35 AM 69.8 °F - 66.2 °F 88% 29.93 in 10.0 mi NNE 8.1 mph - N/A   Scattered Clouds
1:55 AM 69.8 °F - 66.2 °F 88% 29.92 in 10.0 mi NNE 8.1 mph - N/A   Clear
2:15 AM 69.8 °F - 66.2 °F 88% 29.92 in 10.0 mi NNE 9.2 mph - N/A   Clear
2:35 AM 69.8 °F - 64.4 °F 83% 29.90 in 10.0 mi NNE 8.1 mph - N/A   Clear
2:55 AM 69.8 °F - 64.4 °F 83% 29.90 in 10.0 mi NNE 9.2 mph - N/A   Clear
3:35 AM 69.8 °F - 66.2 °F 88% 29.89 in 10.0 mi NNE 9.2 mph - N/A   Clear
3:55 AM 69.8 °F - 66.2 °F 88% 29.88 in 10.0 mi NNE 6.9 mph - N/A   Mostly Cloudy
4:15 AM 71.6 °F - 66.2 °F 83% 29.88 in 10.0 mi NNE 9.2 mph - N/A   Overcast
4:35 AM 71.6 °F - 66.2 °F 83% 29.88 in 10.0 mi NNE 8.1 mph - N/A   Overcast
4:55 AM 71.6 °F - 66.2 °F 83% 29.88 in 10.0 mi NNE 8.1 mph - N/A   Overcast
5:15 AM 71.6 °F - 66.2 °F 83% 29.88 in 10.0 mi NNE 5.8 mph - N/A   Overcast
5:35 AM 71.6 °F - 66.2 °F 83% 29.88 in 10.0 mi NNE 5.8 mph - N/A   Overcast
5:55 AM 71.6 °F - 66.2 °F 83% 29.88 in 12.0 mi NE 8.1 mph - N/A   Overcast
6:15 AM 71.6 °F - 66.2 °F 83% 29.88 in 10.0 mi NNE 6.9 mph - N/A   Mostly Cloudy
6:35 AM 69.8 °F - 66.2 °F 88% 29.89 in 10.0 mi NNE 6.9 mph - N/A   Scattered Clouds
6:55 AM 71.6 °F - 68.0 °F 88% 29.89 in 12.0 mi NNE 5.8 mph - N/A   Overcast
7:50 AM 71.6 °F - 69.8 °F 94% 29.90 in 10.0 mi NNE 8.1 mph - N/A   Overcast
8:50 AM 73.4 °F - 69.8 °F 88% 29.91 in 12.0 mi NNE 9.2 mph - N/A   Overcast
9:50 AM 75.2 °F - 69.8 °F 83% 29.91 in 12.0 mi NE 8.1 mph 16.1 mph N/A   Overcast
11:55 AM 82.4 °F 86.3 °F 69.8 °F 66% 29.90 in 12.0 mi ENE 18.4 mph 21.9 mph N/A   Overcast
12:51 PM 84.2 °F 86.6 °F 66.2 °F 55% 29.87 in 12.0 mi ENE 20.7 mph 26.5 mph N/A   Overcast
2:50 PM 82.4 °F 84.6 °F 66.2 °F 58% 29.82 in 12.0 mi ENE 12.7 mph 17.3 mph N/A   Overcast
3:50 PM 82.4 °F 84.6 °F 66.2 °F 58% 29.82 in 12.0 mi NNE 20.7 mph 24.2 mph N/A   Overcast
4:50 PM 80.6 °F 83.2 °F 68.0 °F 65% 29.82 in 12.0 mi NE 17.3 mph 21.9 mph N/A   Overcast
5:50 PM 73.4 °F - 71.6 °F 94% 29.83 in 12.0 mi NNE 17.3 mph 21.9 mph N/A   Overcast
6:50 PM 71.6 °F - 69.8 °F 94% 29.85 in 10.0 mi NNE 11.5 mph - N/A   Overcast
7:50 PM 71.6 °F - 69.8 °F 94% 29.85 in 10.0 mi North 9.2 mph - N/A   Mostly Cloudy
8:50 PM 71.6 °F - 69.8 °F 94% 29.84 in 10.0 mi North 9.2 mph 15.0 mph N/A   Scattered Clouds
9:50 PM 71.6 °F - 69.8 °F 94% 29.85 in 7.0 mi North 9.2 mph - N/A   Overcast
10:55 PM 69.8 °F - 69.8 °F 100% 29.84 in 10.0 mi North 6.9 mph - N/A   Mostly Cloudy
11:15 PM 69.8 °F - 69.8 °F 100% 29.83 in 7.0 mi North 5.8 mph - N/A   Mostly Cloudy
11:55 PM 69.8 °F - 69.8 °F 100% 29.82 in 7.0 mi North 8.1 mph - N/A   Mostly Cloudy